sat.trackr.live / text

‹ back to catalog

YAOGAN-43 02D

NORAD 60948 · 2024-156D

PAYLOAD ACTIVE UNKNOWN

§ Identity

Operator
Country
PRC
Launch date
2024-09-03
Launch site
XICLF
Launch vehicle
Mass (kg)
RCS (m²)

External: N2YO · Heavens-Above · Gunter

§ Orbital elements

Epoch: 2026-05-24T23:30:15.192000Z

Period
94.55 min
Inclination
34.9928°
Eccentricity
0.0002539
Mean motion
15.23006227 rev/d
Perigee alt
495.0 km
Apogee alt
498.5 km
Semi-major
6,874.9 km
B*
2.9176e-4
RAAN
343.9096°
Arg perigee
13.5268°
Mean anomaly
346.5515°
Rev number
9,590

§ Raw data

YAOGAN-43 02D1 60948U 24156D   26144.97934250  .00007000  00000+0  29176-3 0  99952 60948  34.9928 343.9096 0002539  13.5268 346.5515 15.23006227 95902

JSON: /api/v1/satellites/60948 · /tle

For live sub-satellite position, see the globe view (requires WebGL).

§ Visibility from observer

Set your observer location to see the next 7 days of passes ≥ 10°. The values pass through the URL so the page stays shareable.

No JS? Fill the form by hand. The geolocation button needs JavaScript.